This is the latest recevied weather packets stored in our database for station/object KO4WIL-13. If no packets are shown the sender has not sent any weather packets the latest 10 day(s).
| Time | Temp. | Humidity | Pressure | Rain* | Wind** | Luminosity | Snow |
|---|---|---|---|---|---|---|---|
| 1777918458 | 20° C | 52% | 966.9 hPa | 0 mm | - | - | - |
| 1777918156 | 20.56° C | 53% | 966.9 hPa | 0 mm | - | - | - |
| 1777917854 | 20° C | 53% | 967 hPa | 0 mm | - | - | - |
| 1777917552 | 20.56° C | 53% | 967.1 hPa | 0 mm | - | - | - |
| 1777917250 | 20.56° C | 53% | 967.1 hPa | 0 mm | - | - | - |
| 1777916948 | 20° C | 55% | 967.1 hPa | 0 mm | - | - | - |
| 1777916646 | 20° C | 53% | 967.2 hPa | 0 mm | - | - | - |
| 1777916344 | 20° C | 54% | 967.3 hPa | 0 mm | - | - | - |
| 1777916042 | 20° C | 56% | 967.3 hPa | 0 mm | - | - | - |
| 1777915740 | 19.44° C | 52% | 967.5 hPa | 0 mm | - | - | - |
| 1777915438 | 19.44° C | 53% | 967.5 hPa | 0 mm | - | - | - |
| 1777915136 | 19.44° C | 53% | 967.5 hPa | 0 mm | - | - | - |
| 1777914834 | 19.44° C | 54% | 967.7 hPa | 0 mm | - | - | - |
| 1777914532 | 18.89° C | 55% | 967.8 hPa | 0 mm | - | - | - |
| 1777914230 | 18.89° C | 53% | 967.8 hPa | 0 mm | - | - | - |
| 1777913927 | 18.33° C | 57% | 967.9 hPa | 0 mm | - | - | - |
| 1777913625 | 18.33° C | 54% | 967.9 hPa | 0 mm | - | - | - |
| 1777913323 | 18.33° C | 54% | 968 hPa | 0 mm | - | - | - |
| 1777913021 | 18.33° C | 55% | 968 hPa | 0 mm | - | - | - |
| 1777912719 | 17.78° C | 58% | 968.1 hPa | 0 mm | - | - | - |
| 1777912417 | 17.78° C | 54% | 968.2 hPa | 0 mm | - | - | - |
| 1777912115 | 17.78° C | 56% | 968.2 hPa | 0 mm | - | - | - |
| 1777911813 | 17.22° C | 56% | 968.4 hPa | 0 mm | - | - | - |
| 1777911511 | 17.22° C | 56% | 968.4 hPa | 0 mm | - | - | - |
| 1777911209 | 17.22° C | 57% | 968.4 hPa | 0 mm | - | - | - |
* Rain latest hour (hover to see other rain measurements)
** Current wind speed in m/s (hover to see current wind gust speed)